CW4797 Weather Reports


Display with metric or nautical units.
time (UTC)temp
F
wind
direction
speed
MPH
gust
MPH
rain 1hr
in
rain 24hr
in
rain mn
in
humidity
%
barometer
mb
20200221031623 10 48 0.0 2.0 0.00 0.00 0.00 64 1029.6
20200221030132 10 48 0.0 2.0 0.00 0.00 0.00 63 1029.7
20200221024756 11 48 0.0 1.0 0.00 0.00 0.00 62 1029.6
20200221023042 12 48 0.0 2.0 0.00 0.00 0.00 61 1029.6
20200221021533 12 48 0.0 3.0 0.00 0.00 0.00 60 1029.5
20200221020051 11 58 1.0 2.0 0.00 0.00 0.00 62 1029.2
20200221014555 12 58 0.0 2.0 0.00 0.00 0.00 62 1029.2
20200221013106 13 58 0.0 1.0 0.00 0.00 0.00 62 1029.1
20200221011518 13 58 0.0 2.0 0.00 0.00 0.00 59 1028.9
20200221010055 14 44 0.0 0.0 0.00 0.00 0.00 61 1029.0
20200221004528 15 44 0.0 0.0 0.00 0.00 0.00 60 1028.7
20200221003019 16 44 0.0 0.0 0.00 0.00 0.00 58 1028.7
20200221001524 17 44 0.0 2.0 0.00 0.00 0.00 55 1028.6
20200221000017 17 32 0.0 2.0 0.00 0.00 0.00 55 1028.5
20200220234535 18 30 0.0 0.0 0.00 0.00 0.00 54 1028.5
20200220233019 19 77 1.0 5.0 0.00 0.00 0.00 54 1028.3
20200220231515 19 50 0.0 3.0 0.00 0.00 0.00 53 1028.1
20200220230012 20 46 1.0 3.0 0.00 0.00 0.00 53 1027.8
20200220224619 20 53 0.0 3.0 0.00 0.00 0.00 52 1027.6
20200220223026 21 37 1.0 3.0 0.00 0.00 0.00 51 1027.4
20200220221535 22 76 1.0 5.0 0.00 0.00 0.00 50 1027.0
20200220220017 22 227 1.0 4.0 0.00 0.00 0.00 49 1026.8
20200220214521 23 55 2.0 5.0 0.00 0.01 0.00 47 1026.7
20200220213012 23 113 1.0 5.0 0.00 0.01 0.00 47 1026.4
20200220211510 24 61 2.0 4.0 0.00 0.01 0.00 46 1026.2
20200220210010 24 350 1.0 3.0 0.00 0.01 0.00 47 1026.2
20200220204511 24 360 1.0 4.0 0.00 0.01 0.00 45 1026.1
20200220203012 24 74 1.0 5.0 0.00 0.01 0.00 46 1026.0
20200220201514 24 51 1.0 4.0 0.00 0.01 0.00 44 1026.0
20200220200006 23 80 2.0 8.0 0.00 0.01 0.00 43 1025.9
20200220194507 23 30 1.0 3.0 0.00 0.03 0.00 46 1025.8
20200220193044 23 74 1.0 5.0 0.00 0.03 0.00 45 1025.7
20200220191506 24 16 1.0 8.0 0.00 0.03 0.00 45 1025.7
20200220190007 24 349 1.0 7.0 0.00 0.03 0.00 46 1025.8
20200220184519 24 225 2.0 7.0 0.00 0.06 0.00 45 1025.8
20200220183003 24 123 2.0 6.0 0.00 0.06 0.00 45 1025.9
20200220181515 24 208 2.0 7.0 0.00 0.06 0.00 44 1025.9
20200220180126 25 46 1.0 8.0 0.00 0.06 0.00 43 1026.0
20200220174558 26 90 2.0 7.0 0.00 0.11 0.00 43 1026.1
20200220173104 26 78 2.0 8.0 0.00 0.11 0.00 42 1026.4
20200220171537 26 341 1.0 5.0 0.00 0.11 0.00 44 1026.7
20200220170034 25 11 2.0 5.0 0.00 0.11 0.00 46 1026.9
20200220164529 25 46 2.0 10.0 0.00 0.14 0.00 45 1027.0
20200220163123 24 46 2.0 7.0 0.00 0.14 0.00 47 1027.3
20200220161536 23 360 2.0 6.0 0.00 0.14 0.00 48 1027.6
20200220160033 23 13 1.0 8.0 0.00 0.14 0.00 47 1027.7
20200220154524 23 232 1.0 7.0 0.00 0.17 0.00 47 1027.9
20200220153023 22 13 2.0 6.0 0.00 0.17 0.00 48 1028.0
20200220151529 21 13 1.0 8.0 0.00 0.17 0.00 50 1028.1
20200220150037 21 296 2.0 8.0 0.00 0.17 0.00 49 1028.0
20200220144503 21 271 1.0 4.0 0.00 0.17 0.00 51 1028.3
20200220143143 19 240 1.0 7.0 0.00 0.17 0.00 54 1028.5
20200220141636 17 252 2.0 5.0 0.00 0.17 0.00 57 1028.7
20200220140212 16 298 3.0 7.0 0.00 0.17 0.00 59 1028.7
20200220134608 14 26 0.0 4.0 0.00 0.17 0.00 62 1028.6
20200220133148 13 217 1.0 3.0 0.00 0.17 0.00 64 1028.4
20200220131602 12 249 1.0 2.0 0.00 0.17 0.00 66 1028.4
20200220130114 11 305 0.0 3.0 0.00 0.17 0.00 67 1028.3
20200220124654 10 302 1.0 3.0 0.00 0.17 0.00 69 1028.2
20200220123128 9 281 0.0 3.0 0.00 0.17 0.00 70 1028.0
20200220121744 9 290 1.0 3.0 0.00 0.17 0.00 71 1027.9
20200220120112 8 290 1.0 2.0 0.00 0.17 0.00 71 1027.7
20200220114558 8 290 1.0 2.0 0.00 0.17 0.00 71 1027.4
20200220113104 8 290 1.0 3.0 0.00 0.17 0.00 71 1027.3
20200220111600 9 290 0.0 1.0 0.00 0.17 0.00 69 1027.0
20200220110108 10 290 1.0 3.0 0.00 0.17 0.00 69 1027.0
20200220104527 10 290 0.0 2.0 0.00 0.17 0.00 68 1026.9
20200220103020 10 290 1.0 2.0 0.00 0.17 0.00 68 1026.7
20200220101549 10 290 1.0 2.0 0.00 0.17 0.00 68 1026.6
20200220100034 10 13 0.0 0.0 0.00 0.17 0.00 65 1026.6
20200220094540 11 13 0.0 2.0 0.00 0.17 0.00 65 1026.3
20200220093009 11 13 0.0 2.0 0.00 0.17 0.00 65 1026.2
20200220090003 11 13 0.0 2.0 0.00 0.17 0.00 64 1025.8
20200220084646 12 31 0.0 1.0 0.00 0.17 0.00 63 1025.9
20200220083304 13 31 0.0 1.0 0.00 0.17 0.00 62 1025.7
20200220081628 13 31 0.0 3.0 0.00 0.17 0.00 62 1025.6
20200220080124 13 31 0.0 1.0 0.00 0.17 0.00 61 1025.4
20200220074702 14 31 0.0 1.0 0.00 0.17 0.00 61 1025.4
20200220073115 14 31 0.0 3.0 0.00 0.17 0.00 59 1025.3
20200220071703 14 29 0.0 1.0 0.00 0.17 0.00 59 1025.3
20200220070203 14 29 0.0 0.0 0.00 0.17 0.00 60 1025.3
20200220064553 15 29 0.0 0.0 0.00 0.17 0.00 60 1025.3
20200220063300 15 29 0.0 1.0 0.00 0.17 0.00 59 1025.4
20200220061619 16 29 0.0 2.0 0.00 0.17 0.00 57 1025.2
20200220060100 16 29 0.0 2.0 0.00 0.17 0.00 57 1025.1
20200220054715 16 29 1.0 4.0 0.00 0.17 0.00 58 1025.0
20200220053110 16 47 0.0 2.0 0.00 0.17 0.00 60 1025.0
20200220051538 16 47 0.0 1.0 0.00 0.17 0.00 61 1024.8
20200220050105 17 47 0.0 1.0 0.00 0.17 0.00 58 1024.7
20200220044552 18 47 0.0 1.0 0.00 0.17 0.17 56 1024.4
20200220043040 18 47 0.0 2.0 0.00 0.17 0.17 55 1024.3
20200220041628 19 63 1.0 2.0 0.00 0.17 0.17 56 1024.0
20200220040015 19 35 0.0 3.0 0.00 0.17 0.17 54 1023.9
20200220034511 20 346 0.0 3.0 0.00 0.17 0.17 52 1023.8
20200220033051 21 107 0.0 3.0 0.00 0.17 0.17 50 1023.7